User: anonymous   Login
Location: Unspecified
(0.0000°N, 0.0000°E)
Time: 03:41:42
(UTC+00:00)
Language:

Tiros 3 - Orbit

View from above orbital plane
View from above orbital plane
View from above satellite
View from above satellite

Ground track
Ground track

The orbit data is extracted from the following two-line orbital elements,

1   162U 61017A   18267.95179025 -.00000139 +00000-0 +70436-5 0  9995
2   162 047.8991 225.9394 0045497 305.5848 054.0809 14.44012766983804
Epoch (UTC): 24 September 2018 22:50:34
Eccentricity: 0.0045497
inclination: 47.8991°
perigee height: 713 km
apogee height: 777 km
right ascension of ascending node: 225.9394°
argument of perigee: 305.5848°
revolutions per day: 14.44012766
mean anomaly at epoch: 54.0809°
orbit number at epoch: 98380

The dashed part of the orbit path shows where the satellite is in the earth's shadow,  

DLR